Regional Weather Roundup
Issued by NWS Cleveland, OH

Home | Current Version | Previous Version | Text Only | Print | Product List | Glossary On
Versions: 1 2 3 4 5 6 7 8 9 10 11 12 13 14 15 16 17 18 19 20 21 22 23 24 25 26 27 28 29 30 31 32 33 34 35 36 37 38 39 40 41 42 43 44 45 46 47 48 49 50
000
ASUS41 KCLE 210212
RWRCLE
OHIO REGIONAL WEATHER ROUNDUP
NATIONAL WEATHER SERVICE WILMINGTON, OH
1000 PM EDT WED SEP 20 2017

NOTE: "FAIR" INDICATES FEW OR NO CLOUDS BELOW 12,000 FEET WITH NO
SIGNIFICANT WEATHER AND/OR OBSTRUCTIONS TO VISIBILITY.

OHZ001>008-015>018-024>027-034-035-043-044-210300-
   NORTHWEST OHIO

CITY           SKY/WX    TMP DP  RH WIND       PRES   REMARKS
DEFIANCE       FAIR      71  66  84 SE5       29.98S
FINDLAY        FAIR      74  64  71 SE8       29.99S
TOLEDO EXPRESS FAIR      71  70  96 E5        29.99S
TOLEDO EXEC    FAIR      70  66  87 E6        30.01R
LIMA           FAIR      71  65  81 SE6       30.01S
$$

OHZ009>014-019>023-028>033-038-089-210300-
   NORTHEAST OHIO

CITY           SKY/WX    TMP DP  RH WIND       PRES   REMARKS
CLE-HOPKINS    FAIR      76  62  62 E5        30.04S
CLE-LAKEFRONT  FAIR      74  63  68 E3        30.01S
CUY CO. ARPT   CLEAR     72  64  78 CALM      30.04S
LORAIN-ELYRIA  FAIR      68  60  75 CALM      30.03S
ASHTABULA      FAIR      64  64 100 CALM      30.05S
AKRON-CANTON   FAIR      70  63  78 NE3       30.05R
WOOSTER        FAIR      64  63  96 CALM      30.05R
MANSFIELD      FAIR      71  67  87 S3        30.05R
YOUNGSTOWN     FAIR      70  65  84 NE7       30.04S
$$

OHZ042-051>053-060>062-070>072-077>081-210300-
  SOUTHWEST OHIO

CITY           SKY/WX    TMP DP  RH WIND       PRES   REMARKS
CINC-COVINGTON FAIR      73  69  87 CALM      30.02S
CINC-LUNKEN    FAIR      69  69 100 CALM      30.02R
HAMILTON       FAIR      67  66  97 CALM      30.02R FOG
DAYTON         FAIR      75  66  73 S6        30.03S
WRIGHT-PAT AFB FAIR      72  72 100 CALM      30.02S
DAYTON GENERAL FAIR      72  67  84 CALM      30.02R
WILMINGTON     FAIR      70  68  93 CALM      30.03R
$$

OHZ036-037-039>041-045>050-054>059-063>069-073>076-082>088-210300-
  CENTRAL AND SOUTHEAST OHIO

CITY           SKY/WX    TMP DP  RH WIND       PRES   REMARKS
COLUMBUS       MOCLDY    73  68  84 CALM      30.02R
OSU AIRPORT    FAIR      70  70 100 CALM      30.02S
BOLTON FIELD   FAIR      68  68 100 CALM      30.03S
RICKENBACK AFB FAIR      69  67  90 CALM      30.02R
NEWARK         FAIR      67  66  97 CALM      30.03R FOG
MARION         FAIR      68  63  84 S5        30.03R
LANCASTER      NOT AVBL
ZANESVILLE     FAIR      69  66  90 CALM      30.04R
NEW PHILLY     FAIR      67  66  97 CALM      30.05R FOG
$$



USA.gov is the U.S. government's official web portal to all federal, state and local government web resources and services.